Flag for Germany Weather past 2 weeks in Rottenburg am Neckar, Baden-Württemberg, Germany

Now
65 °F

Clear.


Feels Like: 65 °F
Forecast: 65 / 93 °F
Wind: 1 mph from Northwest

Location: Stuttgart-Echterdingen

Current Time: Jul 2, 2015 at 6:07:40 AM

Latest Report: Jul 2, 2015 at 4:00 AM


Visibility: 22 mi

Pressure: 30.11 "Hg

Humidity: 81%

Dew point: 60 °F

Location of Rottenburg am NeckarLocation

Historic Weather in Rottenburg am Neckar — Graph

°F

Rottenburg am Neckar temperature yesterday

Maximum temperature yesterday: 87 °F (at 4:00 PM)
Minimum temperature yesterday: 60 °F (at 6:00 AM)
Average temperature yesterday: 75 °F

Past Weeks' High & Low Weather Summary

 TemperatureHumidityPressure
High87 °F (Jul 1, 4:00 PM)97% (Jun 24, 7:00 AM)30.24 "Hg (Jun 24, 7:00 AM)
Low46 °F (Jun 24, 6:00 AM)29% (Jul 1, 2:00 PM)29.74 "Hg (Jun 22, 9:00 PM)
Average62 °F70%30.09 "Hg
* Reported Jun 17 4:00 AM — Jul 2 4:00 AM, Rottenburg am Neckar, Weather by CustomWeather, © 2015

Note: Actual official high and low records may vary slightly from our data, if they occured in-between our weather recording intervals... More about our weather records

Advertising

Rottenburg am Neckar weather history for previous 24 hours

 ConditionsComfort  
Time TempWeatherWind HumidityBarometerVisibility
4:00 AM
Thu, Jul 2
65 °FClear.1 mph81%30.11 "Hg22 mi
3:00 AM66 °FClear.1 mph79%30.11 "Hg22 mi
2:00 AM68 °FClear.1 mph76%30.11 "Hg25 mi
1:00 AM69 °FClear.1 mph73%30.10 "Hg25 mi
12:00 AM72 °FClear.1 mph67%30.09 "Hg25 mi
11:00 PM
Wed, Jul 1
74 °FMild.1 mph63%30.08 "HgN/A
10:00 PM76 °FPassing clouds.2 mph60%30.06 "Hg31 mi
9:00 PM80 °FPassing clouds.2 mph57%30.03 "Hg34 mi
8:00 PM83 °FPassing clouds.3 mph50%30.02 "Hg34 mi
7:00 PM86 °FSunny.5 mph46%30.01 "Hg34 mi
6:00 PM87 °FSunny.5 mph39%30.00 "Hg34 mi
4:00 PM87 °FSunny.3 mph31%30.02 "Hg37 mi
3:00 PM86 °FSunny.3 mph31%30.03 "Hg37 mi
2:00 PM86 °FPassing clouds.3 mph29%30.04 "Hg37 mi
1:00 PM84 °FPassing clouds.3 mph42%30.05 "Hg37 mi
12:00 PM82 °FSunny.3 mph46%30.06 "Hg37 mi
10:00 AM75 °FSunny.1 mph53%30.09 "Hg31 mi
9:00 AM71 °FSunny.1 mph62%30.09 "Hg31 mi
8:00 AM67 °FSunny.1 mph67%30.11 "Hg31 mi
7:00 AM63 °FSunny.1 mph79%30.11 "Hg31 mi
6:00 AM60 °FSunny.1 mph80%30.12 "Hg34 mi
Weather by CustomWeather, © 2015

See weather overviewHow to use our weather pages